CAPE
0 0 0 0 0 0 0 0 0 0 0 0 0 0 0 0 0 0 0 0 0 0 98 56 0 0 0 0 0 0 0 0 0 0 0 0 0 0 0 0 0 0 0 0
0 0 0 0 0 0 0 0 0 0 0 0 0 0 0 0 0 0 0 0 0 0 0 0 2 0 0 0 0 0 0 0 0 0 0 0 0 0 0 0 0 0 0 0
0 0 0 0 0 0 0 0 0 0 0 0 0 0 0 0 0 0 0 0 0 0 0 0 0 0 0 0 0 0 0 0 0 0 0 0 0 0 0 0 0 0 0 0
0 0 0 0 0 0 0 0 0 0 0 0 0 0 0 0 0 0 0 0 0 0 0 0 0 0 0 0 0 0 0 0 0 0 0 0 0 0 0 0 0 0 0 0
0 0 0 0 0 0 0 0 0 0 0 0 0 0 0 0 0 0 0 0 0 0 0 0 0 0 0 0 0 0 0 0 0 0 0 0 0 0 0 0 0 0 0 0
0 0 0 0 0 0 0 0 0 0 0 0 0 0 0 0 0 0 0 0 0 0 0 0 0 0 0 0 0 0 0 0 0 0 0 0 0 0 0 0 0 0 0 0
0 0 0 0 0 0 0 0 0 0 0 0 0 0 0 0 0 0 0 0 0 0 0 0 0 0 0 0 0 0 0 0 0 0 0 0 0 0 0 0 0 0 0 0
0 0 0 0 0 0 0 0 0 0 0 0 0 0 0 0 0 0 0 0 0 0 0 0 0 0 0 0 0 19 0 0 0 0 0 0 0 0 0 0 0 0 0 0
0 0 0 0 0 0 0 0 0 0 0 0 0 0 0 0 0 0 0 0 0 0 0 0 0 0 0 0 0 0 0 0 0 0 0 0 0 0 0 0 0 0 0 0
0 0 0 0 0 0 0 0 0 0 0 0 0 0 0 0 0 0 1 0 0 0 0 0 0 0 0 2 1 0 0 0 0 0 0 0 0 0 0 0 0 0 0 0
0 0 0 0 0 0 0 0 0 0 0 0 0 0 0 0 0 0 0 0 0 6 0 0 0 0 0 0 0 1 0 0 0 0 0 0 0 0 0 0 0 0 0 0
0 0 0 0 0 0 0 0 0 0 0 0 0 0 0 0 0 0 0 0 0 0 0 8 12 24 11 2 0 0 0 0 0 0 0 0 0 0 0 0 0 0 0 0
0 0 0 0 0 0 0 0 0 0 0 0 0 0 0 0 0 0 0 0 0 0 0 0 40 66 73 19 4 0 0 0 0 0 0 0 0 0 0 0 0 0 0 0
0 0 0 0 0 0 0 0 0 0 0 0 0 0 0 0 0 0 0 8 0 0 0 0 0 0 0 1 0 0 0 0 0 0 0 0 0 0 0 0 0 0 0 0
0 0 0 0 0 0 0 0 0 0 0 0 0 0 0 0 0 0 0 4 1 0 0 0 0 0 0 0 0 0 0 0 0 0 0 0 0 0 0 0 0 0 0 0
0 0 0 0 0 0 0 0 0 0 0 0 0 0 0 0 0 0 3 0 0 0 0 0 0 0 0 0 0 0 0 0 0 0 0 0 0 0 0 0 0 0 0 0
7 6 2 0 0 0 0 0 0 0 0 0 0 0 0 0 0 2 0 0 0 0 0 0 0 0 0 0 0 0 0 0 0 0 0 0 0 0 0 0 0 0 0 0
1 2 10 0 0 0 0 0 0 0 0 0 0 0 0 0 3 0 0 0 0 0 0 0 0 0 0 0 0 0 0 0 0 0 0 0 0 0 0 0 0 0 0 0
0 0 6 8 7 0 0 0 0 0 0 0 0 0 1 0 0 0 0 0 0 0 0 0 0 0 0 0 0 0 0 0 0 0 0 0 0 0 0 0 0 0 0 0
0 0 2 0 0 0 0 2 3 14 0 0 0 0 0 0 0 0 0 0 0 0 0 0 0 0 0 0 0 0 0 0 0 0 0 0 0 0 0 0 0 0 0 0
0 0 0 0 1 0 0 0 24 3 0 0 0 0 0 0 0 0 0 0 0 0 0 0 0 0 0 0 0 0 0 0 0 0 0 0 0 0 0 0 3 2 2 1
0 0 0 0 0 0 0 0 13 0 0 0 0 0 0 0 0 0 0 0 0 0 0 0 0 0 0 0 0 0 0 0 0 0 0 0 0 0 0 0 3 1 1 1
0 8 0 0 0 0 0 0 0 0 3 0 0 0 0 0 0 0 0 0 0 0 0 0 0 0 0 0 0 0 0 0 0 0 0 0 0 0 0 0 2 1 1 1
0 0 0 1 0 0 0 0 0 0 0 2 0 0 0 0 0 0 0 0 0 0 0 0 0 0 0 0 0 0 0 0 0 0 0 0 0 0 0 1 2 2 2 1
0 0 0 0 0 0 0 6 1 0 0 0 0 0 2 0 0 0 0 0 0 0 0 0 2 0 0 0 0 0 0 0 0 0 0 0 0 0 0 1 1 1 0 0
0 0 0 0 0 0 0 0 0 0 0 0 0 0 0 0 0 0 0 0 0 0 0 0 0 0 0 0 0 0 0 0 0 0 0 0 1 1 2 3 2 1 0 0
CIN
-0 -0 -0 -0 -0 -0 -0 -0 -0 -0 -0 -0 -0 -0 -0 -0 -0 -0 -0 -0 -0 -1 -346 -529 -0 -0 -0 -0 -0 -0 -0 -0 -0 -0 -0 -0 -0 -0 -0 -0 -0 -0 -0 -0
-0 -0 -0 -0 -0 -0 -0 -0 -0 -0 -0 -0 -0 -0 -0 -0 -0 -0 -0 -0 -0 -0 -0 -192 -616 -0 -0 -0 -0 -0 -0 -0 -0 -0 -0 -0 -0 -0 -0 -0 -0 -0 -0 -0
-0 -0 -0 -0 -0 -0 -0 -0 -0 -0 -0 -0 -0 -0 -0 -0 -0 -0 -0 -0 -0 -0 -0 -0 -0 -0 -0 -0 -0 -0 -0 -0 -0 -0 -0 -0 -0 -0 -0 -0 -0 -0 -0 -0
-0 -0 -0 -0 -0 -0 -0 -0 -0 -0 -0 -0 -0 -0 -0 -0 -0 -0 -0 -0 -0 -0 -0 -0 -0 -0 -0 -0 -0 -0 -0 -0 -0 -0 -0 -0 -0 -0 -0 -0 -0 -0 -0 -0
-0 -0 -0 -0 -0 -0 -0 -0 -0 -0 -0 -0 -0 -0 -0 -0 -0 -0 -0 -0 -0 -0 -0 -0 -0 -0 -0 -0 -0 -0 -0 -0 -0 -0 -0 -0 -0 -0 -0 -0 -0 -0 -0 -0
-0 -0 -0 -0 -0 -0 -0 -0 -0 -0 -0 -0 -0 -0 -0 -0 -0 -0 -0 -0 -0 -0 -0 -0 -0 -0 -0 -0 -0 -0 -0 -0 -0 -0 -0 -0 -0 -0 -0 -0 -0 -0 -0 -0
-0 -0 -0 -0 -0 -0 -0 -0 -0 -0 -0 -0 -0 -0 -0 -0 -0 -0 -0 -0 -0 -0 -0 -0 -0 -0 -0 -0 -0 -0 -0 -0 -0 -0 -0 -0 -0 -0 -0 -0 -0 -0 -0 -0
-0 -0 -0 -0 -0 -0 -0 -0 -0 -0 -0 -0 -0 -0 -0 -0 -0 -0 -0 -0 -0 -0 -0 -0 -0 -0 -0 -0 -0 -26 -0 -0 -0 -0 -0 -0 -0 -0 -0 -0 -0 -0 -0 -0
-0 -0 -0 -0 -0 -0 -0 -0 -0 -0 -0 -0 -0 -0 -0 -0 -0 -0 -0 -0 -0 -0 -0 -0 -0 -0 -0 -0 -0 -0 -0 -0 -0 -0 -0 -0 -0 -0 -0 -0 -0 -0 -0 -0
-0 -0 -0 -0 -0 -0 -0 -0 -0 -0 -0 -0 -0 -0 -0 -5 -0 -0 -51 -0 -0 -0 -63 -0 -0 -0 -0 -116 -85 -0 -0 -0 -0 -0 -0 -0 -0 -0 -0 -0 -0 -0 -0 -0
-0 -0 -0 -0 -0 -0 -0 -0 -0 -0 -0 -0 -0 -0 -0 -0 -0 -0 -0 -0 -0 -34 -6 -35 -0 -0 -0 -0 -55 -193 -0 -0 -0 -0 -0 -0 -0 -0 -0 -0 -0 -0 -0 -0
-0 -0 -0 -0 -0 -0 -0 -0 -0 -0 -0 -0 -0 -0 -0 -0 -0 -0 -0 -0 -0 -0 -0 -89 -85 -144 -212 -204 -0 -0 -0 -0 -0 -0 -0 -0 -0 -0 -0 -0 -0 -0 -0 -0
-0 -0 -0 -0 -0 -0 -0 -0 -0 -0 -0 -0 -0 -0 -0 -0 -0 -0 -0 -0 -0 -0 -0 -0 -96 -129 -148 -207 -232 -0 -0 -0 -0 -0 -0 -0 -0 -0 -0 -0 -0 -0 -0 -0
-0 -0 -0 -0 -0 -0 -0 -0 -0 -0 -0 -0 -0 -0 -0 -0 -0 -0 -1 -40 -0 -0 -0 -0 -0 -0 -0 -62 -0 -0 -0 -0 -0 -0 -0 -0 -0 -0 -0 -0 -0 -0 -0 -0
-0 -0 -0 -0 -0 -0 -0 -0 -0 -0 -0 -0 -0 -0 -0 -0 -0 -0 -0 -104 -80 -0 -0 -0 -0 -0 -0 -0 -0 -0 -0 -0 -0 -0 -0 -0 -0 -0 -0 -0 -0 -0 -0 -0
-0 -0 -0 -0 -0 -0 -0 -0 -0 -0 -0 -0 -0 -0 -0 -0 -0 -1 -87 -0 -0 -0 -0 -0 -0 -0 -0 -0 -0 -0 -0 -0 -0 -0 -0 -0 -0 -0 -0 -0 -0 -0 -0 -0
-1 -1 -1 -0 -0 -0 -0 -0 -0 -0 -0 -0 -0 -0 -0 -0 -0 -55 -0 -0 -0 -0 -0 -0 -0 -0 -0 -0 -0 -0 -0 -0 -0 -0 -0 -0 -0 -0 -0 -0 -0 -0 -0 -0
-0 -1 -0 -0 -2 -3 -0 -0 -0 -0 -0 -0 -0 -0 -0 -0 -69 -0 -0 -0 -0 -0 -0 -0 -0 -0 -0 -0 -0 -0 -0 -0 -0 -0 -0 -0 -0 -0 -0 -0 -0 -0 -0 -0
-0 -0 -1 -1 -16 -0 -0 -0 -0 -0 -0 -0 -0 -0 -57 -4 -0 -0 -0 -0 -0 -0 -0 -0 -0 -0 -0 -0 -0 -0 -0 -0 -0 -0 -0 -0 -0 -0 -0 -0 -0 -0 -0 -0
-0 -0 -1 -1 -0 -0 -0 -101 -46 -37 -0 -0 -0 -0 -0 -0 -0 -0 -0 -0 -0 -0 -0 -0 -0 -0 -0 -0 -0 -0 -0 -0 -0 -0 -0 -0 -0 -0 -0 -0 -0 -0 -0 -0
-0 -0 -0 -0 -1 -0 -73 -0 -42 -11 -0 -0 -0 -0 -0 -0 -0 -0 -0 -0 -0 -0 -0 -0 -0 -0 -0 -0 -0 -0 -0 -0 -0 -0 -0 -0 -0 -0 -0 -0 -0 -0 -0 -0
-0 -0 -0 -0 -2 -0 -0 -0 -8 -9 -2 -0 -0 -0 -0 -0 -0 -0 -0 -0 -0 -0 -0 -0 -0 -0 -0 -0 -0 -0 -0 -0 -0 -0 -0 -0 -0 -0 -0 -0 -0 -0 -0 -0
-0 -10 -3 -6 -0 -0 -0 -0 -0 -0 -0 -0 -0 -0 -0 -0 -0 -0 -0 -0 -0 -0 -0 -0 -0 -0 -0 -0 -0 -0 -0 -0 -0 -0 -0 -0 -0 -0 -0 -0 -0 -0 -0 -0
-0 -8 -0 -1 -0 -0 -0 -0 -0 -2 -0 -1 -0 -0 -0 -0 -0 -0 -0 -0 -0 -0 -0 -0 -0 -0 -0 -0 -0 -0 -0 -0 -0 -0 -0 -0 -0 -0 -0 -0 -0 -0 -0 -0
-0 -0 -0 -0 -0 -0 -0 -13 -17 -0 -2 -0 -0 -0 -17 -0 -0 -0 -0 -0 -0 -0 -0 -0 -27 -0 -0 -0 -0 -0 -0 -0 -0 -0 -0 -0 -0 -0 -0 -0 -0 -0 -0 -0
-0 -0 -0 -0 -0 -0 -0 -0 -0 -0 -0 -0 -0 -0 -0 -0 -0 -0 -0 -0 -0 -0 -0 -0 -0 -1 -0 -0 -0 -0 -0 -0 -0 -0 -0 -0 -0 -0 -0 -0 -0 -0 -0 -0
Wind_Speed
21 18 13 12 12 15 19 22 18 19 20 23 23 23 30 34 33 30 32 29 21 20 20 17 16 14 12 11 10 10 9 7 5 4 4 7 7 7 9 10 10 10 10 11
20 19 16 18 17 16 19 22 21 23 20 24 23 23 29 31 28 31 35 41 41 34 26 21 19 18 18 17 14 13 11 9 7 7 9 9 5 9 8 9 9 10 9 10
19 19 25 20 20 19 21 21 22 25 25 27 32 30 30 28 29 33 35 35 37 37 29 22 20 19 18 18 17 15 13 10 9 9 9 10 8 10 13 12 12 12 10 10
22 24 24 24 20 21 25 22 23 26 30 36 26 40 29 37 37 32 39 36 36 36 25 20 19 19 18 17 15 14 13 12 12 11 9 8 9 9 13 10 11 10 10 10
24 26 26 26 24 24 25 25 26 29 31 33 28 34 32 31 34 39 36 35 36 36 25 18 14 14 13 13 14 14 14 13 12 13 11 11 10 12 8 9 7 9 10 10
28 25 26 23 25 23 26 26 27 29 30 38 33 29 35 30 32 37 37 35 33 30 25 18 15 13 13 11 12 13 14 13 14 12 12 8 8 8 5 6 6 7 10 10
32 31 27 25 28 26 23 26 36 38 33 35 26 29 29 32 35 35 36 33 31 28 24 20 17 13 10 9 11 14 15 14 14 10 4 8 7 5 6 5 7 7 8 9
37 40 24 22 24 26 26 24 29 37 37 36 28 34 33 27 28 28 29 28 27 26 23 20 18 13 9 8 8 14 9 7 6 10 12 8 8 8 8 8 9 8 6 7
35 34 24 23 20 22 25 27 25 31 32 39 35 33 30 27 28 27 26 24 24 24 23 18 13 8 8 10 12 19 18 20 19 13 12 12 10 8 8 11 10 9 7 7
29 41 28 26 23 24 25 25 33 29 39 43 38 39 38 28 28 26 25 26 27 23 18 14 13 10 12 15 15 20 15 17 17 19 15 13 10 8 10 10 10 8 6 6
29 31 33 30 29 30 31 31 29 31 32 42 48 45 29 30 28 26 25 28 32 25 21 21 22 20 18 17 18 17 19 18 15 10 10 13 10 8 7 12 9 8 7 6
29 32 40 37 29 27 31 34 34 40 44 39 40 47 34 35 30 35 37 34 33 35 39 30 21 18 19 18 18 18 18 19 16 16 14 9 11 8 12 10 10 9 8 6
27 30 44 43 32 29 32 31 29 33 35 43 48 47 30 38 46 42 38 35 38 30 31 28 26 25 23 21 19 17 17 16 13 11 10 11 15 11 13 11 13 11 9 6
27 31 35 45 44 43 49 46 42 40 47 48 49 50 46 45 45 42 37 29 32 29 31 32 31 33 28 28 25 24 23 19 16 14 12 11 10 14 12 12 12 12 9 9
29 40 40 44 45 46 47 47 41 42 44 47 47 44 41 39 37 36 28 25 25 26 26 27 26 26 25 22 21 22 21 22 20 17 15 13 12 10 9 11 12 12 12 14
29 40 40 48 42 41 47 43 41 42 43 41 40 41 37 33 28 24 21 19 21 25 26 27 29 29 27 22 25 23 19 19 18 17 16 13 11 9 8 8 10 11 12 15
33 35 38 48 41 40 44 37 36 36 36 37 38 38 34 29 24 19 17 20 23 25 25 25 28 32 31 27 28 29 14 11 13 15 14 13 10 10 9 8 8 11 13 12
35 37 38 46 37 47 35 25 28 33 36 37 35 32 31 27 21 18 17 18 22 25 24 24 26 29 24 24 26 23 14 11 8 9 10 10 11 12 11 9 7 8 9 10
28 32 38 40 38 36 39 31 29 33 36 30 24 24 23 22 22 22 17 16 22 25 26 24 26 28 26 24 22 15 10 8 5 6 7 8 7 7 8 10 9 7 5 7
26 26 32 34 40 45 34 26 32 32 32 26 24 22 18 16 22 19 19 17 23 28 30 32 31 28 24 27 15 10 8 4 2 2 3 3 4 6 7 6 9 9 8 8
35 31 34 36 37 32 31 35 32 27 28 23 24 24 23 19 15 16 23 23 25 28 33 31 27 22 27 21 15 11 6 3 3 2 2 3 1 4 4 4 5 6 7 9
35 34 34 29 32 37 33 33 29 32 29 28 26 24 19 22 21 25 19 22 23 29 33 29 27 24 21 17 14 12 6 7 5 3 2 1 1 0 1 2 2 2 4 8
29 20 24 20 18 27 24 32 28 29 28 33 26 27 27 21 16 14 19 19 20 28 30 28 26 25 21 17 12 12 10 6 4 4 2 2 2 1 1 1 2 2 3 4
22 21 22 26 26 33 40 38 34 35 31 27 27 28 28 24 18 16 13 15 20 22 24 22 28 28 27 16 12 15 13 9 6 3 2 2 2 1 3 1 1 1 1 3
23 25 30 37 46 43 40 36 29 35 27 31 33 31 28 30 24 18 17 15 21 17 21 22 20 19 20 14 13 15 16 11 6 6 4 1 0 1 1 2 4 4 4 5
29 33 35 28 47 43 45 40 41 38 40 38 40 37 26 21 19 18 18 19 19 20 22 21 23 20 16 14 14 16 16 14 9 6 4 2 2 2 3 3 4 3 2 3
Wind_Direction
321 318 309 309 311 317 319 318 316 316 320 324 318 315 310 305 307 309 307 308 301 289 288 278 264 256 251 233 227 236 233 238 242 270 287 295 293 306 316 322 325 326 326 328
320 313 314 316 316 313 313 311 310 316 320 321 317 306 309 304 304 305 306 304 302 303 299 283 266 253 240 231 224 215 222 220 237 265 289 294 298 309 320 328 329 330 329 330
316 325 327 322 316 315 312 309 313 315 321 318 316 307 312 310 306 305 307 309 307 304 300 287 271 254 246 237 230 224 227 232 256 269 285 292 313 308 308 315 316 315 324 327
318 319 321 325 319 316 312 316 313 315 318 315 325 311 314 310 307 308 311 315 314 312 308 289 271 263 252 245 238 231 233 246 267 264 273 267 286 296 300 310 312 316 318 323
316 318 319 320 320 321 317 319 314 314 313 314 313 311 316 318 310 308 312 316 320 321 322 316 302 287 276 257 243 238 244 256 256 260 262 271 281 299 313 310 316 316 320 327
309 313 314 316 318 315 315 314 313 313 312 304 309 304 313 318 315 311 314 319 323 328 330 327 318 305 291 273 245 243 251 256 262 255 270 272 272 289 305 305 308 317 318 325
312 312 315 314 311 316 314 311 307 307 307 304 319 312 305 313 315 314 315 321 323 324 324 324 314 303 293 268 263 268 270 280 280 284 269 286 280 279 292 286 297 303 316 322
307 307 317 325 320 317 317 312 304 306 308 310 316 309 314 321 324 325 327 326 328 329 332 329 316 307 289 267 274 289 294 296 307 304 295 284 268 279 288 287 289 295 312 317
309 307 321 322 323 327 322 314 320 309 309 306 307 309 314 319 325 331 332 333 333 335 335 337 336 331 305 286 276 284 305 306 302 298 300 289 275 269 273 284 284 294 306 318
312 303 310 313 316 316 312 317 311 312 307 303 306 308 308 315 322 326 327 326 326 328 331 329 315 304 290 284 285 290 295 295 292 292 292 285 274 260 276 272 276 283 293 311
315 305 306 311 308 305 308 307 310 309 304 300 300 302 316 318 317 319 324 323 325 322 321 310 301 297 295 291 293 292 295 297 291 283 281 278 267 266 266 272 271 268 275 292
313 306 301 302 306 306 304 304 303 299 299 300 301 297 307 306 310 311 311 310 315 307 302 305 301 295 290 287 289 285 290 291 290 286 285 259 260 266 269 267 263 263 261 272
317 307 304 304 311 312 308 314 314 312 308 302 302 302 314 309 307 305 309 310 312 315 310 305 305 302 294 288 286 286 285 283 285 281 281 278 275 265 270 269 267 263 262 258
310 303 299 296 300 305 302 301 301 303 301 302 296 302 302 303 302 303 306 303 306 309 304 301 302 299 300 295 291 289 285 280 277 273 262 270 264 270 261 257 259 262 256 261
301 295 298 297 299 301 299 299 302 300 299 298 302 303 304 305 307 310 312 307 306 308 310 315 319 319 318 311 298 290 284 283 274 267 264 264 274 264 267 260 254 257 267 264
303 300 302 299 304 301 299 299 302 301 302 300 300 299 306 309 312 314 317 319 318 315 317 319 320 320 319 317 311 303 282 273 267 263 263 266 265 259 251 240 251 259 261 269
302 304 305 302 308 309 302 303 304 305 304 305 304 307 310 307 308 313 317 318 319 320 322 322 324 317 320 320 316 304 284 265 263 259 256 256 250 239 234 241 242 258 264 259
299 300 302 304 305 300 311 320 315 309 306 305 302 306 309 310 311 316 319 323 326 328 330 327 325 325 333 334 329 316 309 292 263 247 246 252 251 253 251 247 234 252 255 256
289 295 300 301 302 306 310 315 318 317 312 314 313 313 321 319 318 318 326 325 326 331 330 334 329 326 331 336 339 335 341 322 296 275 255 257 242 233 243 257 265 259 249 254
300 293 292 301 303 303 315 319 317 316 307 312 315 317 322 335 324 322 335 334 328 324 325 328 328 322 326 312 349 7 13 41 84 293 267 265 203 199 191 212 265 278 269 250
307 304 293 294 297 304 319 315 312 308 307 321 316 310 312 314 332 337 324 329 328 329 327 330 334 319 301 317 336 352 27 101 88 35 337 300 230 179 197 220 265 265 260 261
304 304 301 300 296 299 319 313 307 301 300 303 306 313 323 313 314 311 327 332 341 332 331 334 337 316 306 318 328 339 7 354 355 34 37 56 102 306 219 230 260 255 239 264
307 309 314 314 312 312 320 297 313 305 304 294 307 306 302 326 328 331 331 338 344 334 329 341 335 315 308 305 325 332 349 6 358 347 14 34 46 41 104 220 248 265 252 248
306 307 302 307 301 298 285 286 297 275 296 299 305 289 309 316 323 327 338 343 341 344 338 341 335 308 281 305 320 313 334 343 340 351 17 29 88 93 115 92 177 176 189 211
298 301 297 292 282 290 281 285 298 299 305 304 302 303 308 310 314 316 326 333 334 343 345 339 341 355 289 301 322 323 325 336 334 325 327 329 2 161 193 154 160 173 170 170
295 291 291 278 278 282 273 285 292 295 291 298 297 297 308 317 320 323 326 328 332 334 340 341 328 333 336 327 324 324 325 327 331 321 317 296 275 268 274 279 306 298 276 194